GW5156 Weather Reports


time (UTC)temp
C
wind
direction
speed
KPH
gust
KPH
rain 1hr
cm
rain 24hr
cm
rain mn
cm
humidity
%
barometer
mb
20260906141155 28 73 1.6 4.8 0.00 0.00 0.64 67 1014.0
20260906140656 28 87 4.8 6.4 0.00 0.00 0.64 67 1014.0
20260906140155 28 157 3.2 4.8 0.00 0.00 0.64 66 1014.0
20260906135655 28 138 3.2 4.8 0.00 0.00 0.64 64 1014.0
20260906135155 28 256 0.0 3.2 0.00 0.00 0.64 65 1014.0
20260906134655 28 95 3.2 6.4 0.00 0.00 0.64 66 1014.0
20260906134155 27 268 1.6 4.8 0.00 0.00 0.64 68 1014.0
20260906133655 27 338 0.0 1.6 0.00 0.00 0.64 70 1014.0
20260906133155 27 69 4.8 9.7 0.00 0.00 0.64 70 1014.0
20260906132655 26 283 0.0 1.6 0.00 0.00 0.64 71 1014.0
20260906132155 26 71 3.2 4.8 0.00 0.00 0.64 74 1014.0
20260906131656 25 141 1.6 3.2 0.00 0.00 0.64 77 1014.0
20260906131155 25 104 3.2 4.8 0.00 0.00 0.64 78 1014.0
20260906130655 25 96 3.2 4.8 0.00 0.00 0.64 79 1014.0
20260906130157 25 93 1.6 4.8 0.00 0.00 0.64 81 1014.0
20260906125655 25 118 3.2 4.8 0.00 0.00 0.64 81 1014.0
20260906125155 24 75 1.6 3.2 0.00 0.00 0.64 82 1014.0
20260906124655 23 108 1.6 3.2 0.00 0.00 0.64 83 1014.0
20260906124155 23 220 1.6 3.2 0.00 0.00 0.64 84 1014.0
20260906123657 23 209 1.6 3.2 0.00 0.00 0.64 83 1014.0
20260906123156 22 236 0.0 1.6 0.00 0.00 0.64 85 1014.0
20260906122700 22 84 1.6 3.2 0.00 0.00 0.64 87 1014.0
20260906122155 22 58 1.6 3.2 0.00 0.00 0.64 89 1014.0
20260906121655 22 46 0.0 0.0 0.00 0.00 0.64 89 1014.0
20260906121155 21 74 1.6 3.2 0.00 0.00 0.64 90 1014.0
20260906120657 21 322 1.6 3.2 0.00 0.00 0.64 90 1014.0
20260906120155 21 44 0.0 3.2 0.00 0.00 0.64 90 1014.0
20260906115655 21 359 1.6 1.6 0.00 0.00 0.64 90 1014.0
20260906115155 22 105 1.6 3.2 0.00 0.00 0.64 89 1014.0
20260906114656 22 65 1.6 3.2 0.00 0.00 0.64 88 1014.0
20260906114155 22 78 1.6 3.2 0.00 0.00 0.64 87 1014.0
20260906113655 22 353 0.0 1.6 0.00 0.00 0.64 87 1014.0
20260906113156 22 32 1.6 3.2 0.00 0.00 0.64 87 1014.0
20260906112655 22 24 0.0 1.6 0.00 0.00 0.64 87 1014.0
20260906112155 22 58 1.6 3.2 0.00 0.00 0.64 86 1014.0
20260906111655 22 11 0.0 0.0 0.00 0.00 0.64 86 1014.0
20260906111155 22 3 1.6 1.6 0.00 0.00 0.64 86 1014.0
20260906110656 22 43 1.6 3.2 0.00 0.00 0.64 85 1014.0
20260906110155 22 64 1.6 4.8 0.00 0.00 0.64 84 1014.0
20260906105655 22 309 0.0 1.6 0.00 0.00 0.64 83 1014.0
20260906105156 22 273 0.0 1.6 0.00 0.00 0.64 84 1014.0
20260906104655 22 284 3.2 3.2 0.00 0.00 0.64 84 1014.0
20260906104156 22 43 0.0 1.6 0.00 0.00 0.64 84 1013.0
20260906103230 22 88 0.0 1.6 0.00 0.00 0.64 85 1013.0
20260906102656 22 44 0.0 1.6 0.00 0.00 0.64 85 1014.0
20260906102155 22 70 1.6 3.2 0.00 0.00 0.64 85 1013.0
20260906101656 22 344 0.0 0.0 0.00 0.00 0.64 85 1014.0
20260906101156 22 33 0.0 3.2 0.00 0.00 0.64 86 1014.0
20260906100655 22 313 1.6 3.2 0.00 0.00 0.64 86 1013.0
20260906100155 22 86 1.6 3.2 0.00 0.00 0.64 86 1013.0
20260906095655 22 350 0.0 1.6 0.00 0.00 0.64 85 1013.0
20260906095156 22 360 0.0 0.0 0.00 0.00 0.64 85 1013.0
20260906094655 23 360 0.0 0.0 0.00 0.00 0.64 84 1013.0
20260906094157 23 126 3.2 3.2 0.00 0.00 0.64 82 1013.0
20260906093656 22 332 1.6 3.2 0.00 0.00 0.64 82 1013.0
20260906093155 22 279 1.6 3.2 0.00 0.00 0.64 84 1013.0
20260906092655 23 245 0.0 1.6 0.00 0.00 0.64 84 1013.0
20260906092155 23 96 3.2 3.2 0.00 0.00 0.64 82 1013.0
20260906091656 23 47 0.0 1.6 0.00 0.00 0.64 79 1013.0
20260906091155 24 124 1.6 1.6 0.00 0.00 0.64 78 1013.0
20260906090655 25 44 1.6 3.2 0.00 0.00 0.64 73 1013.0
20260906090155 25 216 1.6 3.2 0.00 0.00 0.64 71 1013.0
20260906085657 25 243 3.2 4.8 0.00 0.00 0.64 69 1013.0
20260906085156 25 299 1.6 4.8 0.00 0.00 0.64 69 1013.0
20260906084656 25 11 3.2 4.8 0.00 0.00 0.64 70 1013.0
20260906084156 25 316 3.2 4.8 0.00 0.00 0.64 70 1013.0
20260906083655 25 134 3.2 6.4 0.00 0.00 0.64 69 1012.0
20260906083155 24 33 4.8 9.7 0.00 0.00 0.64 70 1012.0
20260906082655 23 72 4.8 8.0 0.00 0.00 0.64 71 1012.0
20260906082155 23 51 4.8 9.7 0.00 0.00 0.64 77 1012.0
20260906081656 23 43 3.2 6.4 0.00 0.00 0.64 79 1013.0
20260906081155 22 20 3.2 6.4 0.00 0.00 0.64 81 1013.0
20260906080655 22 42 3.2 6.4 0.00 0.00 0.64 82 1013.0
20260906080155 22 67 6.4 14.5 0.00 0.00 0.64 84 1014.0
20260906075655 22 33 4.8 8.0 0.00 0.00 0.64 86 1014.0
20260906075155 22 60 12.9 19.3 0.00 0.00 0.64 87 1014.0
20260906074655 22 58 6.4 11.3 0.00 0.00 0.64 88 1014.0
20260906074155 22 50 4.8 9.7 0.00 0.00 0.64 88 1014.0
20260906073655 22 64 8.0 14.5 0.00 0.00 0.64 89 1015.0
20260906073155 23 64 8.0 12.9 0.00 0.00 0.64 89 1015.0
20260906072655 23 34 6.4 11.3 0.00 0.00 0.64 88 1015.0
20260906072156 24 74 6.4 9.7 0.00 0.00 0.64 86 1015.0
20260906071656 24 40 6.4 12.9 0.00 0.00 0.64 86 1015.0
20260906071155 24 71 8.0 16.1 0.00 0.00 0.64 85 1015.0
20260906070655 24 77 6.4 9.7 0.00 0.00 0.64 85 1015.0
20260906070155 23 136 4.8 6.4 0.00 0.00 0.64 87 1015.0
20260906065655 23 13 4.8 6.4 0.00 0.00 0.61 90 1014.0
20260906065156 23 80 3.2 4.8 0.00 0.00 0.61 90 1014.0
20260906064655 24 46 1.6 3.2 0.00 0.00 0.61 89 1014.0
20260906064155 24 14 1.6 3.2 0.00 0.00 0.61 86 1014.0
20260906063655 24 239 3.2 6.4 0.00 0.00 0.61 86 1014.0
20260906063156 24 260 0.0 3.2 0.00 0.00 0.61 87 1014.0
20260906062655 24 34 3.2 4.8 0.00 0.00 0.61 86 1014.0
20260906062155 24 88 6.4 8.0 0.00 0.00 0.61 85 1014.0
20260906061655 24 44 1.6 3.2 0.00 0.00 0.61 86 1014.0
20260906061155 24 205 1.6 3.2 0.00 0.00 0.61 83 1014.0
20260906060655 24 359 3.2 9.7 0.00 0.00 0.61 82 1014.0
20260906060155 24 286 3.2 4.8 0.00 0.00 0.61 85 1013.0
20260906055655 24 306 1.6 4.8 0.00 0.00 0.61 85 1013.0
20260906055155 24 346 3.2 4.8 0.00 0.00 0.61 83 1013.0
20260906054655 25 52 3.2 6.4 0.00 0.00 0.33 81 1013.0
20260906054156 25 57 4.8 9.7 0.10 0.00 0.33 81 1013.0
20260906053655 25 82 9.7 16.1 0.05 0.00 0.33 80 1013.0
20260906053155 25 89 14.5 20.9 0.66 0.00 0.03 80 1013.0
20260906052655 26 77 20.9 32.2 0.00 0.00 0.00 76 1014.0
20260906052155 26 77 12.9 17.7 0.00 0.00 0.00 75 1013.0
20260906051655 27 97 14.5 24.1 0.05 0.00 0.00 73 1014.0
20260906051155 27 90 12.9 24.1 0.00 0.00 0.00 71 1013.0
20260906050657 26 49 6.4 14.5 0.00 0.00 0.00 76 1013.0
20260906050155 26 26 1.6 3.2 0.00 0.00 0.00 79 1013.0
20260906045655 26 69 0.0 1.6 0.00 0.00 0.00 78 1013.0
20260906045155 26 340 0.0 0.0 0.00 0.00 0.00 78 1013.0
20260906044655 26 172 0.0 1.6 0.00 0.00 0.00 77 1013.0
20260906044156 26 44 0.0 3.2 0.00 0.00 0.00 77 1013.0
20260906043655 26 213 0.0 1.6 0.00 0.00 0.00 77 1013.0
20260906043155 26 45 0.0 1.6 0.00 0.00 0.00 77 1013.0
20260906042655 26 64 0.0 1.6 0.00 0.00 0.00 77 1013.0
20260906042156 26 332 1.6 1.6 0.00 0.00 0.00 77 1013.0
20260906041655 26 112 0.0 1.6 0.00 0.00 0.00 77 1013.0
20260906041155 26 88 3.2 4.8 0.00 0.00 0.00 78 1013.0
20260906040656 26 48 0.0 1.6 0.00 0.00 0.00 78 1013.0
20260906040155 26 35 0.0 0.0 0.00 0.00 0.00 76 1013.0
20260906035655 26 24 0.0 1.6 0.00 0.00 0.00 77 1014.0
20260906035155 26 291 0.0 1.6 0.00 0.00 0.00 77 1014.0
20260906034655 26 46 0.0 1.6 0.00 0.00 0.00 76 1014.0
20260906034155 26 37 0.0 0.0 0.00 0.00 0.00 76 1013.0
20260906033655 26 284 0.0 1.6 0.00 0.00 0.00 76 1013.0
20260906033156 27 352 0.0 1.6 0.00 0.00 0.00 76 1013.0
20260906032655 27 37 0.0 1.6 0.00 0.00 0.00 74 1013.0
20260906032155 27 65 0.0 1.6 0.00 0.00 0.00 74 1013.0
20260906031656 27 77 1.6 3.2 0.00 0.00 0.00 74 1013.0
20260906031155 27 303 0.0 1.6 0.00 0.00 0.00 73 1013.0
20260906030655 27 350 0.0 1.6 0.00 0.00 0.00 74 1013.0
20260906030155 27 329 0.0 1.6 0.00 0.00 0.00 74 1013.0
20260906025655 27 246 0.0 0.0 0.00 0.00 0.00 72 1013.0
20260906025155 27 176 1.6 3.2 0.00 0.00 0.00 73 1013.0
20260906024655 28 37 1.6 3.2 0.00 0.00 0.00 72 1013.0
20260906024155 28 360 0.0 0.0 0.00 0.00 0.00 71 1013.0
20260906023656 28 253 0.0 1.6 0.00 0.00 0.00 70 1013.0
20260906023155 28 105 1.6 3.2 0.00 0.00 0.00 68 1013.0
20260906022655 28 253 3.2 4.8 0.00 0.00 0.00 66 1013.0
20260906022155 28 320 1.6 3.2 0.00 0.00 0.00 66 1013.0
20260906021655 28 313 1.6 3.2 0.00 0.00 0.00 67 1013.0
20260906021155 28 316 1.6 4.8 0.00 0.00 0.00 67 1013.0
20260906020655 28 265 1.6 3.2 0.00 0.00 0.00 69 1013.0
20260906020155 28 11 3.2 3.2 0.00 0.00 0.00 70 1013.0
20260906015655 28 314 3.2 4.8 0.00 0.00 0.00 69 1013.0
20260906015155 28 1 3.2 4.8 0.00 0.00 0.00 70 1012.0
20260906014655 28 173 0.0 1.6 0.00 0.00 0.00 72 1012.0
20260906014155 28 273 0.0 0.0 0.00 0.00 0.00 72 1012.0
20260906013655 28 338 0.0 1.6 0.00 0.00 0.00 72 1012.0
20260906013155 28 42 1.6 3.2 0.00 0.00 0.00 72 1012.0
20260906012655 28 266 0.0 0.0 0.00 0.00 0.00 72 1012.0
20260906012155 28 21 0.0 1.6 0.00 0.00 0.00 71 1012.0
20260906011655 28 5 0.0 1.6 0.00 0.00 0.00 70 1012.0
20260906011155 28 324 0.0 1.6 0.00 0.00 0.00 70 1012.0
20260906010655 28 66 0.0 3.2 0.00 0.00 0.00 70 1012.0
20260906010155 28 4 0.0 1.6 0.00 0.00 0.00 69 1012.0
20260906005655 28 6 0.0 1.6 0.00 0.00 0.00 68 1012.0
20260906005155 29 300 1.6 1.6 0.00 0.00 0.00 67 1012.0
20260906004655 29 336 0.0 1.6 0.00 0.00 0.00 66 1012.0
20260906004155 29 18 0.0 1.6 0.00 0.00 0.00 66 1012.0
20260906003655 29 267 3.2 3.2 0.00 0.00 0.00 66 1012.0
20260906003155 29 279 3.2 4.8 0.00 0.00 0.00 67 1012.0
20260906002656 29 305 1.6 3.2 0.00 0.00 0.00 66 1012.0
20260906002156 29 279 0.0 1.6 0.00 0.00 0.00 67 1012.0
20260906001655 29 219 1.6 4.8 0.00 0.00 0.00 67 1012.0
20260906001155 30 265 4.8 9.7 0.00 0.00 0.00 66 1012.0
20260906000655 30 234 4.8 6.4 0.00 0.00 0.00 65 1012.0
20260906000156 30 226 6.4 9.7 0.00 0.00 0.00 64 1013.0
20260905235655 31 236 8.0 12.9 0.00 0.00 0.00 62 1013.0
20260905235155 31 259 6.4 11.3 0.00 0.00 0.00 59 1013.0
20260905234655 32 163 6.4 14.5 0.00 0.00 0.00 58 1012.0
20260905234155 33 105 6.4 9.7 0.00 0.00 0.00 54 1012.0
20260905233655 33 80 4.8 9.7 0.00 0.00 0.00 53 1012.0
20260905233155 33 22 4.8 9.7 0.00 0.00 0.00 54 1012.0
20260905232655 34 29 1.6 4.8 0.00 0.00 0.00 54 1012.0
20260905232155 34 70 4.8 11.3 0.00 0.00 0.00 53 1012.0
20260905231655 35 48 1.6 4.8 0.00 0.00 0.00 52 1012.0
20260905231155 35 29 3.2 6.4 0.00 0.00 0.00 51 1012.0
20260905230655 35 82 6.4 11.3 0.00 0.00 0.00 49 1012.0
20260905230155 36 60 4.8 9.7 0.00 0.00 0.00 49 1012.0
20260905225655 37 20 1.6 3.2 0.00 0.00 0.00 50 1011.0
20260905225155 37 310 1.6 3.2 0.00 0.00 0.00 46 1011.0
20260905224655 36 310 1.6 3.2 0.00 0.00 0.00 46 1011.0
20260905224155 37 330 1.6 3.2 0.00 0.00 0.00 45 1011.0
20260905223655 37 321 1.6 3.2 0.00 0.00 0.00 45 1011.0
20260905223155 37 9 3.2 6.4 0.00 0.00 0.00 44 1011.0
20260905222655 37 353 4.8 6.4 0.00 0.00 0.00 43 1011.0
20260905222156 37 330 3.2 4.8 0.00 0.00 0.00 44 1011.0
20260905221655 37 333 4.8 6.4 0.00 0.00 0.00 42 1011.0
20260905221155 38 344 3.2 6.4 0.00 0.00 0.00 42 1011.0
20260905220655 37 292 1.6 4.8 0.00 0.00 0.00 44 1011.0
20260905220155 37 309 1.6 4.8 0.00 0.00 0.00 43 1011.0
20260905215655 37 149 1.6 3.2 0.00 0.00 0.00 43 1011.0
20260905215155 37 147 1.6 3.2 0.00 0.00 0.00 43 1012.0
20260905214656 37 335 3.2 6.4 0.00 0.00 0.00 42 1012.0
20260905214155 37 181 3.2 3.2 0.00 0.00 0.00 42 1012.0
20260905213655 37 151 0.0 4.8 0.00 0.00 0.00 42 1012.0
20260905213155 37 270 3.2 6.4 0.00 0.00 0.00 43 1012.0
20260905212655 37 164 1.6 4.8 0.00 0.00 0.00 43 1012.0
20260905212155 37 329 3.2 6.4 0.00 0.00 0.00 42 1012.0
20260905211655 38 97 1.6 6.4 0.00 0.00 0.00 42 1012.0
20260905211155 38 310 1.6 3.2 0.00 0.00 0.00 41 1012.0
20260905210655 38 297 1.6 3.2 0.00 0.00 0.00 41 1012.0
20260905210155 38 331 1.6 3.2 0.00 0.00 0.00 41 1012.0
20260905205655 38 357 3.2 4.8 0.00 0.00 0.00 41 1012.0
20260905205157 38 245 3.2 8.0 0.00 0.00 0.00 42 1012.0
20260905204656 38 349 1.6 4.8 0.00 0.00 0.00 42 1012.0
20260905204155 38 220 1.6 6.4 0.00 0.00 0.00 41 1012.0
20260905203656 38 242 3.2 6.4 0.00 0.00 0.00 40 1012.0
20260905203155 37 183 1.6 3.2 0.00 0.00 0.00 42 1012.0
20260905202655 37 75 4.8 9.7 0.00 0.00 0.00 43 1012.0
20260905202156 37 222 3.2 4.8 0.00 0.00 0.00 42 1012.0
20260905201655 37 310 1.6 3.2 0.00 0.00 0.00 44 1012.0
20260905201156 37 8 3.2 8.0 0.00 0.00 0.00 42 1012.0
20260905200655 37 64 4.8 9.7 0.00 0.00 0.00 44 1012.0
20260905200155 37 243 6.4 11.3 0.00 0.00 0.00 45 1012.0
20260905195655 37 142 4.8 8.0 0.00 0.00 0.00 44 1012.0
20260905195155 37 69 3.2 8.0 0.00 0.00 0.00 43 1013.0
20260905194655 37 56 1.6 4.8 0.00 0.00 0.00 43 1013.0
20260905194156 37 14 1.6 4.8 0.00 0.00 0.00 45 1013.0
20260905193655 38 94 4.8 6.4 0.00 0.00 0.00 43 1013.0
20260905193155 38 138 1.6 3.2 0.00 0.00 0.00 42 1013.0
20260905192655 37 334 1.6 4.8 0.00 0.00 0.00 43 1013.0
20260905192155 37 233 3.2 6.4 0.00 0.00 0.00 44 1013.0
20260905191656 37 349 1.6 3.2 0.00 0.00 0.00 44 1013.0
20260905191155 37 328 1.6 6.4 0.00 0.00 0.00 45 1013.0
20260905190655 37 287 1.6 4.8 0.00 0.00 0.00 46 1013.0
20260905190159 37 95 4.8 8.0 0.00 0.00 0.00 44 1013.0
20260905185656 37 14 3.2 6.4 0.00 0.00 0.00 43 1013.0
20260905185155 36 7 3.2 4.8 0.00 0.00 0.00 45 1013.0
20260905184655 36 108 1.6 3.2 0.00 0.00 0.00 46 1014.0
20260905184155 37 245 4.8 9.7 0.00 0.00 0.00 46 1014.0
20260905183655 37 292 3.2 6.4 0.00 0.00 0.00 43 1014.0
20260905183155 37 360 3.2 8.0 0.00 0.00 0.00 44 1014.0
20260905182656 36 63 3.2 8.0 0.00 0.00 0.00 47 1014.0
20260905182155 37 218 3.2 4.8 0.00 0.00 0.00 49 1014.0
20260905181655 37 207 1.6 4.8 0.00 0.00 0.00 47 1014.0
20260905181155 37 302 3.2 4.8 0.00 0.00 0.00 48 1014.0
20260905180655 37 329 4.8 8.0 0.00 0.00 0.00 49 1014.0
20260905180156 36 247 4.8 9.7 0.00 0.00 0.00 51 1014.0
20260905175656 36 328 3.2 6.4 0.00 0.00 0.00 50 1014.0
20260905175155 35 82 1.6 3.2 0.00 0.00 0.00 52 1014.0
20260905174655 35 190 1.6 3.2 0.00 0.00 0.00 52 1014.0
20260905174156 35 84 9.7 14.5 0.00 0.00 0.00 51 1014.0
20260905173655 36 255 3.2 4.8 0.00 0.00 0.00 53 1014.0
20260905173156 36 274 3.2 6.4 0.00 0.00 0.00 51 1014.0
20260905172655 36 247 3.2 4.8 0.00 0.00 0.00 51 1014.0
20260905172157 35 174 3.2 3.2 0.00 0.00 0.00 53 1014.0
20260905171655 35 15 3.2 6.4 0.00 0.00 0.00 54 1014.0
20260905171156 35 122 6.4 9.7 0.00 0.00 0.00 53 1015.0
20260905170655 36 114 3.2 4.8 0.00 0.00 0.00 50 1015.0
20260905165708 35 276 1.6 3.2 0.00 0.00 0.00 53 1015.0
20260905165155 35 66 3.2 4.8 0.00 0.00 0.00 55 1015.0
20260905164656 35 270 3.2 8.0 0.00 0.00 0.00 54 1015.0
20260905164155 34 349 3.2 4.8 0.00 0.00 0.00 55 1015.0
20260905163656 34 243 8.0 12.9 0.00 0.00 0.00 56 1015.0
20260905163155 35 210 3.2 4.8 0.00 0.00 0.00 54 1015.0
20260905162655 35 8 6.4 9.7 0.00 0.00 0.00 54 1015.0
20260905162155 35 204 1.6 6.4 0.00 0.00 0.00 56 1015.0
20260905161655 34 30 3.2 6.4 0.00 0.00 0.00 56 1015.0
20260905161156 33 303 1.6 8.0 0.00 0.00 0.00 59 1015.0
20260905160656 33 222 4.8 8.0 0.00 0.00 0.00 58 1015.0
20260905160155 34 187 1.6 3.2 0.00 0.00 0.00 57 1015.0
20260905155656 34 6 3.2 6.4 0.00 0.00 0.00 56 1015.0
20260905155155 34 223 3.2 8.0 0.00 0.00 0.00 57 1015.0
20260905154655 33 221 0.0 3.2 0.00 0.00 0.00 56 1015.0
20260905154156 33 310 1.6 4.8 0.00 0.00 0.00 59 1015.0
20260905153655 32 24 3.2 4.8 0.00 0.00 0.00 61 1015.0
20260905153155 32 78 6.4 9.7 0.00 0.00 0.00 60 1015.0
20260905152655 32 95 4.8 8.0 0.00 0.00 0.00 61 1015.0
20260905152155 32 154 3.2 4.8 0.00 0.00 0.00 65 1015.0
20260905151729 32 130 1.6 4.8 0.00 0.00 0.00 65 1015.0
20260905151155 32 150 3.2 4.8 0.00 0.00 0.00 66 1015.0
20260905150655 32 240 4.8 6.4 0.00 0.00 0.00 67 1015.0
20260905150155 32 202 3.2 6.4 0.00 0.00 0.00 65 1015.0
20260905145655 31 85 3.2 6.4 0.00 0.00 0.00 68 1015.0
20260905145156 31 95 1.6 6.4 0.00 0.00 0.00 69 1015.0
20260905144656 30 101 6.4 8.0 0.00 0.00 0.00 69 1015.0
20260905144155 30 111 4.8 6.4 0.00 0.00 0.00 70 1016.0
20260905143656 30 210 4.8 9.7 0.00 0.00 0.00 71 1016.0
20260905143155 30 150 3.2 4.8 0.00 0.00 0.00 72 1016.0
20260905142655 30 217 6.4 11.3 0.00 0.00 0.00 73 1016.0
20260905142155 30 178 0.0 3.2 0.00 0.00 0.00 73 1016.0
20260905141655 30 189 3.2 6.4 0.00 0.00 0.00 73 1016.0